Home   Weather   43°12'N, 87°59'W   Past weeks
Flag for USA

Past Weather in 43°12'N, 87°59'W, USA — Yesterday and Last 2 Weeks

Now
37 °F

Clear.


Feels Like: 30 °F
Forecast: 53 / 39 °F
Wind: 12 mph from Southwest

Location: Milwaukee / Timmerman

Current Time: Oct 23, 2019 at 5:56:25 am

Latest Report: Oct 23, 2019 at 5:35 am


Visibility: 10 mi

Pressure: 29.79 "Hg

Humidity: 75%

Dew Point: 30 °F

Location of 43°12'N, 87°59'WLocation

Past Weather in 43°12'N, 87°59'W — Graph

°F

43°12'N, 87°59'W Temperature Yesterday

Maximum temperature yesterday: 50 °F (at 12:15 am)
Minimum temperature yesterday: 43 °F (at 5:45 pm)
Average temperature yesterday: 47 °F

High & Low Weather Summary for the Past Weeks

 TemperatureHumidityPressure
High70 °F (Oct 9, 12:45 pm)100% (Oct 18, 2:55 am)30.25 "Hg (Oct 18, 2:55 am)
Low32 °F (Oct 14, 4:55 am)29% (Oct 9, 1:45 pm)29.35 "Hg (Oct 22, 5:35 am)
Average46 °F73%29.89 "Hg
* Reported Oct 8 4:15 am — Oct 23 4:35 am, 43°12'N, 87°59'W. Weather by CustomWeather, © 2019

Note: Actual official high and low records may vary slightly from our data, if they occured in-between our weather recording intervals... More about our weather records

Advertising

43°12'N, 87°59'W Weather History for the Previous 24 Hours

Scroll right to see more
 ConditionsComfort  
Time TempWeatherWind HumidityBarometerVisibility
4:35 am
Wed, Oct 23
37 °FClear.14 mph75%29.76 "Hg10 mi
4:15 am39 °FClear.8 mph70%29.75 "Hg10 mi
3:55 am39 °FClear.8 mph70%29.74 "Hg10 mi
3:35 am41 °FClear.8 mph66%29.74 "Hg10 mi
3:15 am41 °FPassing clouds.12 mph66%29.73 "Hg10 mi
2:55 am41 °FPassing clouds.10 mph66%29.73 "Hg10 mi
2:35 am41 °FOvercast.13 mph66%29.73 "Hg10 mi
1:55 am43 °FPassing clouds.13 mph61%29.72 "Hg10 mi
1:35 am43 °FClear.13 mph61%29.72 "Hg10 mi
1:15 am43 °FPassing clouds.16 mph57%29.71 "Hg10 mi
12:55 am43 °FPassing clouds.16 mph61%29.70 "Hg10 mi
12:35 am45 °FPassing clouds.15 mph53%29.70 "Hg10 mi
12:15 am45 °FPassing clouds.15 mph57%29.70 "Hg10 mi
11:35 pm
Tue, Oct 22
45 °FPassing clouds.15 mph57%29.69 "Hg10 mi
11:15 pm45 °FPassing clouds.14 mph57%29.69 "Hg10 mi
10:35 pm46 °FOvercast.17 mph57%29.68 "Hg10 mi
10:15 pm46 °FOvercast.17 mph57%29.68 "Hg10 mi
9:55 pm46 °FOvercast.14 mph57%29.68 "Hg10 mi
9:35 pm46 °FOvercast.18 mph57%29.67 "Hg10 mi
9:15 pm46 °FOvercast.15 mph62%29.67 "Hg10 mi
8:55 pm45 °FLight rain. Mostly cloudy.15 mph71%29.66 "Hg10 mi
7:45 pm45 °FMostly cloudy.8 mph76%29.66 "Hg10 mi
6:45 pm45 °FOvercast.13 mph76%29.65 "Hg10 mi
5:45 pm43 °FMostly cloudy.14 mph81%29.63 "Hg10 mi
4:45 pm46 °FMostly cloudy.16 mph62%29.60 "Hg10 mi
3:45 pm46 °FMostly cloudy.16 mph66%29.57 "Hg10 mi
2:45 pm45 °FOvercast.28 mph71%29.54 "Hg10 mi
1:45 pm46 °FOvercast.18 mph66%29.51 "Hg10 mi
12:45 pm46 °FOvercast.23 mph66%29.49 "Hg10 mi
11:45 am46 °FOvercast.16 mph66%29.48 "Hg10 mi
10:45 am45 °FOvercast.16 mph81%29.44 "Hg7 mi
9:45 am46 °FOvercast.20 mph71%29.42 "Hg10 mi
8:45 am46 °FOvercast.14 mph71%29.40 "Hg10 mi
7:45 am46 °FOvercast.15 mph71%29.37 "Hg10 mi
7:15 am45 °FMostly cloudy.17 mph76%29.36 "Hg10 mi
6:55 am45 °FMostly cloudy.18 mph76%29.36 "Hg10 mi
6:35 am46 °FLight rain. Mostly cloudy.18 mph71%29.36 "Hg7 mi
6:15 am46 °FMostly cloudy.21 mph71%29.35 "Hg10 mi
5:55 am46 °FOvercast.18 mph71%29.35 "Hg10 mi
5:35 am46 °FMostly cloudy.17 mph71%29.35 "Hg10 mi
5:15 am46 °FOvercast.21 mph71%29.36 "Hg10 mi
Weather by CustomWeather, © 2019

See weather overview